Regional Weather Roundup
Issued by NWS Bismarck, ND

Home | Current Version | Previous Version | Text Only | Print | Product List | Glossary On
Versions: 1 2 3 4 5 6 7 8 9 10 11 12 13 14 15 16 17 18 19 20 21 22 23 24 25 26 27 28 29 30 31 32 33 34 35 36 37 38 39 40 41 42 43 44 45 46 47 48 49 50
000
ASUS43 KBIS 201759
RWRBIS

NWR BROADCAST TEXT
NATIONAL WEATHER SERVICE BISMARCK ND
1200 PM CST SAT DEC 20 2014

NOTE: "FAIR" INDICATES FEW OR NO CLOUDS BELOW 12,000 FEET WITH NO
SIGNIFICANT WEATHER AND/OR OBSTRUCTIONS TO VISIBILITY.


CITY           SKY/WX    TMP DP  RH WIND       PRES   REMARKS
WILLISTON      SUNNY     29  26  89 S3        29.83F
MINOT          CLOUDY    22  19  89 SE6       29.84F FOG     WCI  14
MINOT AFB      NOT AVBL
BISMARCK       CLOUDY    20  19  96 CALM      29.90F
DICKINSON      NOT AVBL
GARRISON         N/A     24  21  88 SE7       29.84F WCI  16
HETTINGER ARPT PTSUNNY   37  28  70 W9        29.87F
JAMESTOWN      FOG       27  23  85 S12       29.93F VSB 1/2 WCI  17
CARRINGTON     CLOUDY    19  19 100 MISG      29.92F FOG
CROSBY         MOCLDY    28  28 100 SW9       29.80F WCI  20
HAZEN          CLOUDY    23  21  93 CALM      29.86F
OAKES          FOG       27  27 100 S10       29.98F VSB 1/2 WCI  17
WATFORD CITY   FAIR      36  28  75 SW13      29.81F
$$

CITY           SKY/WX    TMP DP  RH WIND       PRES   REMARKS
GRAND FORKS    FOG       27  26  96 SW9       29.99F VSB 1   WCI  18
GRAND FORKS AF NOT AVBL
DEVILS LAKE    CLOUDY    25  18  74 SE5       29.90F VSB 1/2 WCI  19
FARGO          CLOUDY    32  28  85 S16       30.01F FOG
GWINNER        CLOUDY    30  30 100 MISG      30.00F VSB 1
$$

CITY           SKY/WX    TMP DP  RH WIND       PRES   REMARKS
ABERDEEN       FOG       26  25  96 S14       29.99F VSB 3/4 WCI  14
MOBRIDGE       CLOUDY    27  24  89 SE10      29.89F WCI  17
BUFFALO          N/A     46  29  51 W14       29.82F
RAPID CITY     PTSUNNY   47  27  45 N3        29.92S
GLASGOW        MOSUNNY   38  28  67 W7        29.81F
SIDNEY         SUNNY     36  28  75 S7        29.85F
WOLF POINT     MOSUNNY   35  28  75 NW3       29.83F
GLENDIVE       SUNNY     41  28  60 S5        29.87F
MILES CITY     SUNNY     42  28  57 SW9       29.89F
BAKER          SUNNY     43  29  57 W13       29.88F
$$

CITY           SKY/WX    TMP DP  RH WIND       PRES   REMARKS
BILLINGS       PTSUNNY   34  22  61 SW14      29.92S
GREAT FALLS    CLOUDY    39  22  50 SW17G23   29.84S
$$



USA.gov is the U.S. government's official web portal to all federal, state and local government web resources and services.